Powrót do katalogu

TIANHUI 6B

AktywnyNaukaSSO
NORAD 55839·PAYLOAD·🇨🇳 China

Wystrzelony Mar 9, 2023 z Taiyuan Satellite Launch Center

Loading…

Następne Przeloty (najbliższe 24 godziny)

TLE

ŚwieżeSource: Space-Track

Epoka: Sep 14, 2026, 14:44 UTC

1 55839U 23030D   26257.61429404 -.00000116  00000-0 -48007-4 0  9993
2 55839  99.0124 264.7476 0002615 144.9313 215.2025 14.01326683179910

Śledź TIANHUI 6B w czasie rzeczywistym z AllMySat

Download on the App Store